GFSMW_850_temp_225.txt.gz
Temp
23 22 22 22 22 21 20 19 19 18 17 16 15 14 15 15 14 14 14 13 13 13 13 12 12 11 11 10 11 10 10 9 9 8 8 8 8 7 8 8 8 7 8
22 22 22 22 22 22 21 18 18 17 17 16 16 15 15 14 13 14 14 13 14 14 14 13 12 11 10 10 10 10 10 9 9 8 7 7 7 7 8 7 6 7 7
20 21 20 20 21 20 20 18 17 17 17 16 15 15 14 14 14 14 14 14 14 14 13 12 12 11 10 9 9 9 9 9 9 8 8 7 6 7 7 7 7 7 7
20 19 18 18 19 20 19 17 17 16 16 16 15 15 14 14 14 14 14 14 13 12 11 11 11 11 10 10 9 9 9 8 8 7 7 7 7 7 6 7 7 7 6
18 17 17 18 18 18 17 16 15 15 15 15 14 14 14 14 14 14 13 13 12 11 10 10 10 10 9 9 9 8 8 8 7 7 7 7 7 6 6 6 7 7 5
15 16 17 18 18 17 16 15 15 15 14 14 14 14 14 14 14 13 13 12 11 10 10 9 9 9 9 9 9 8 8 7 7 7 6 6 6 6 6 5 6 5 5
15 15 16 16 17 17 16 15 14 14 14 14 15 15 14 14 13 12 12 11 11 11 10 10 9 9 8 9 8 8 8 7 6 6 6 6 6 5 6 5 4 5 3
14 14 15 15 15 15 15 14 14 14 15 15 15 14 14 13 12 12 11 11 10 10 10 10 9 8 8 8 8 8 8 7 6 5 5 5 5 5 5 5 5 3 2
14 14 14 15 15 15 15 15 15 15 15 15 14 13 13 12 12 11 11 11 11 10 10 10 10 9 8 7 7 7 7 6 6 5 5 5 5 5 4 4 4 4 1
14 14 14 15 15 15 15 15 15 15 14 14 13 13 12 12 11 11 11 11 10 10 10 9 9 9 8 7 7 6 6 5 5 5 5 5 5 4 3 3 3 3 3
16 15 15 15 15 15 15 15 14 14 13 13 13 12 12 11 11 11 10 10 10 9 9 8 8 8 7 6 6 5 5 5 5 5 4 4 4 3 2 2 2 3 3
17 16 15 14 15 14 14 14 13 13 13 13 12 12 11 11 10 10 10 10 9 8 8 7 7 7 7 6 6 5 4 5 4 4 3 2 1 1 1 1 1 1 2
16 15 14 14 14 14 13 13 13 13 12 12 11 11 11 10 10 10 9 8 8 7 7 7 7 7 7 6 6 6 4 4 4 3 2 2 1 0 -0 0 0 1 1
17 16 15 14 14 13 13 12 12 12 12 11 10 10 9 10 9 9 8 7 7 6 6 6 6 6 6 6 6 5 4 4 3 3 2 2 1 1 -1 -1 -0 -0 1
15 15 15 14 14 13 12 12 12 11 10 9 9 9 9 8 7 7 6 6 6 6 6 6 5 6 6 6 5 5 3 3 3 2 2 1 1 0 -0 -1 -0 0 0
14 14 14 14 13 12 12 11 10 9 9 9 9 9 7 7 6 6 5 5 5 5 4 4 4 5 5 5 3 3 2 3 2 2 2 1 0 -0 -1 -1 -1 -0 0
14 13 13 13 12 11 11 10 9 9 9 9 8 7 6 5 5 5 5 4 4 3 4 3 3 3 4 4 2 3 2 2 2 2 2 0 0 -1 -1 -1 -1 -0 -0
13 14 13 12 11 11 9 8 8 8 8 7 7 6 5 5 5 4 4 3 2 2 2 2 2 3 2 2 2 2 2 2 2 2 1 0 -0 -1 -1 -1 -1 -1 -1
13 13 12 11 10 9 8 8 8 8 7 6 6 5 5 4 4 3 3 3 2 2 1 1 1 2 2 2 2 2 2 2 2 2 0 0 -1 -1 -2 -1 -1 -1 -1
11 11 11 9 8 8 8 8 7 7 6 6 5 5 4 4 3 3 3 2 1 1 1 1 1 1 2 2 2 1 1 2 2 1 -0 -0 -1 -1 -2 -1 -1 -1 -1
10 8 8 8 8 8 7 7 6 6 5 5 5 4 4 3 3 2 2 1 0 0 0 1 1 1 1 1 1 1 1 1 1 1 -0 -1 -2 -1 -2 -2 -1 -1 -1
7 7 8 8 7 7 6 6 6 5 5 5 4 4 4 3 2 1 0 -0 -0 -0 -0 0 0 0 1 0 1 1 1 1 1 1 -0 -1 -2 -2 -2 -2 -2 -2 -2
7 7 7 7 6 6 6 5 5 5 4 4 4 3 2 1 1 1 -0 -1 -1 -1 -1 -1 -0 -0 -0 -0 -0 -0 -0 0 -0 -1 -1 -1 -2 -2 -2 -2 -2 -2 -2
7 7 6 6 6 5 5 4 4 4 3 3 3 2 1 1 0 -0 0 -1 -1 -1 -1 -1 -1 -1 -1 -1 -1 -1 -1 -1 -2 -2 -2 -2 -2 -2 -2 -3 -3 -3 -2
6 6 6 5 4 4 3 3 3 2 1 1 0 -1 -1 -0 0 -0 -0 -1 -1 -2 -2 -2 -2 -2 -2 -2 -1 -2 -2 -2 -2 -2 -2 -3 -3 -3 -3 -3 -3 -3 -3
5 5 4 3 3 2 2 1 1 0 -0 -1 -1 -0 -1 -0 -0 -1 -0 -1 -2 -2 -2 -1 -2 -2 -2 -2 -2 -2 -3 -3 -3 -3 -3 -3 -3 -3 -3 -3 -3 -3 -3

GFSMW_850_temp_228.txt.gz
Temp
25 24 22 21 20 19 18 17 15 16 18 17 16 15 15 15 15 15 14 14 14 14 13 12 11 13 13 12 10 11 10 10 10 9 9 9 9 9 8 9 8 8 8
23 22 21 22 22 19 17 16 15 15 18 17 16 16 15 15 15 14 14 14 13 14 14 14 14 13 12 12 11 10 10 10 9 9 9 8 7 8 8 9 9 8 8
22 22 20 19 21 19 17 16 16 14 17 17 16 15 15 15 14 14 13 14 15 14 14 14 14 13 13 12 11 10 9 9 9 8 8 7 7 7 7 8 8 8 8
20 20 19 17 17 16 17 16 15 14 15 16 16 16 15 15 14 13 13 13 14 14 14 13 12 12 11 11 11 10 10 8 8 8 8 8 7 7 6 8 8 8 7
20 19 17 17 16 14 18 15 13 14 14 15 15 15 15 14 14 13 15 14 14 13 13 12 11 10 10 10 10 10 9 9 7 7 7 7 7 7 6 6 7 8 8
19 18 16 16 15 17 15 14 14 14 14 14 14 15 14 14 14 15 14 14 13 13 12 11 10 10 10 9 9 9 9 8 7 7 7 7 6 6 6 6 6 6 6
18 17 15 17 18 18 17 15 14 14 14 14 14 13 14 14 15 14 13 12 13 12 11 11 10 10 10 9 9 8 8 8 8 6 7 6 6 6 6 5 6 5 5
18 16 15 18 17 17 16 15 14 14 14 14 13 13 13 14 13 13 12 12 12 11 11 11 10 10 10 9 8 8 8 8 7 6 5 5 5 5 6 5 5 5 4
18 17 16 16 16 16 14 14 14 13 13 12 14 14 14 13 13 13 12 12 12 11 11 10 10 9 9 9 8 8 7 7 7 7 6 6 6 6 5 5 5 4 4
18 17 16 15 14 14 13 13 13 13 12 12 13 13 13 13 13 12 12 11 11 11 10 10 10 9 9 9 8 8 7 6 7 6 6 6 5 5 4 4 4 4 3
18 17 16 15 14 14 13 12 12 13 12 12 13 13 13 13 12 12 11 11 11 10 10 10 9 8 8 8 7 8 7 6 6 5 5 5 4 4 3 3 3 3 3
18 18 17 15 14 13 13 13 12 12 11 13 13 13 13 12 12 11 11 10 10 10 10 8 8 7 7 7 6 7 7 6 5 4 3 3 3 3 3 2 2 2 2
18 17 16 15 15 13 13 13 12 13 13 13 13 13 12 11 11 10 10 10 10 9 8 8 7 6 6 5 4 5 5 6 6 3 3 3 3 3 3 2 1 1 1
18 17 17 15 14 14 13 12 11 13 13 13 12 11 11 10 10 10 9 10 9 8 7 6 5 5 4 5 5 4 4 5 5 3 3 3 3 2 2 1 0 -1 -0
17 17 16 15 15 13 12 11 10 13 13 12 11 10 9 9 9 9 10 8 7 6 6 4 4 4 3 5 4 3 3 3 3 3 3 3 2 2 1 1 -0 -1 -0
17 16 15 14 14 13 11 10 10 12 11 10 9 9 9 9 9 9 7 6 6 4 3 3 2 2 3 3 3 3 3 3 2 2 2 2 2 1 0 0 -1 -1 -0
16 15 15 14 14 12 10 9 8 11 10 9 9 9 9 8 9 7 6 5 4 3 2 2 2 1 2 3 2 2 2 2 2 3 2 2 2 1 0 -0 -1 -1 -0
15 14 14 13 13 11 9 8 8 9 9 9 8 8 8 8 6 6 5 4 2 2 3 1 1 1 2 2 1 2 2 2 2 2 2 2 2 1 -0 -1 -1 -0 -1
14 12 11 12 12 11 8 8 9 8 8 8 7 7 7 6 5 5 4 3 3 2 1 1 1 1 1 1 2 2 2 2 2 2 2 1 1 1 -0 -1 -1 -1 -1
13 13 12 11 10 8 8 8 7 7 7 7 6 6 6 5 5 4 2 1 1 1 1 1 1 1 1 2 2 2 2 1 1 2 1 1 1 0 -0 -2 -1 -1 -1
12 12 11 9 7 7 8 8 8 7 6 7 6 5 5 5 4 3 1 1 1 1 1 1 1 0 1 1 1 1 1 1 1 1 1 1 1 -0 -1 -2 -1 -1 -1
11 9 7 7 7 7 8 7 7 6 6 6 5 5 4 4 4 2 1 0 0 -0 -0 -1 0 0 0 1 0 -0 1 1 1 0 1 1 -0 -1 -1 -2 -2 -1 -1
7 7 6 7 7 7 7 7 6 6 5 5 5 4 4 3 3 2 1 1 0 -1 -0 -1 -1 -0 -1 -1 -0 -0 -0 -0 0 0 0 -0 -1 -2 -2 -2 -2 -2 -2
6 6 6 6 7 6 6 6 5 5 4 4 3 3 3 2 2 1 0 0 0 -0 -1 -1 -2 -1 -1 -1 -1 -0 -1 -1 -1 -1 -1 -1 -1 -2 -2 -2 -2 -2 -2
5 5 5 5 5 5 5 4 3 3 3 2 2 1 0 0 -0 0 0 0 -0 -1 -2 -1 -1 -1 -1 -1 -1 -1 -1 -2 -2 -2 -2 -2 -2 -3 -2 -2 -2 -2 -2
5 5 5 4 4 3 3 2 2 2 2 1 -0 -1 -1 -0 -0 -0 -0 -1 -1 -2 -2 -2 -1 -1 -2 -2 -1 -1 -2 -2 -3 -3 -2 -2 -2 -3 -3 -3 -3 -3 -3

GFSMW_850_temp_231.txt.gz
Temp
28 27 26 25 25 24 22 21 19 16 18 17 16 15 16 15 15 15 15 15 15 14 14 13 13 13 12 13 13 10 11 11 10 10 9 9 9 9 9 10 8 9 9
28 27 26 25 24 23 22 21 19 17 16 17 15 16 16 15 15 15 15 15 15 14 13 13 13 13 15 15 13 11 9 9 9 9 9 8 9 9 9 8 8 9 8
27 26 25 23 21 20 20 20 20 18 16 15 15 14 14 15 14 15 14 14 13 13 12 14 15 14 13 13 12 11 9 9 9 8 8 10 10 10 8 8 9 9 9
24 24 24 23 21 20 19 19 19 19 17 16 14 14 14 14 14 14 14 14 13 12 14 15 14 14 13 12 10 9 9 8 8 8 8 9 8 8 8 8 7 8 9
24 24 22 21 20 20 17 17 18 18 17 16 14 15 14 14 14 15 14 13 12 12 14 14 14 13 13 12 11 10 9 8 8 7 8 8 8 7 7 7 8 7 7
24 22 21 19 19 17 17 18 15 15 16 15 14 14 15 15 14 14 13 13 12 13 14 14 13 13 12 11 10 10 10 9 9 7 8 7 7 7 7 6 6 6 6
23 22 21 20 18 16 15 15 14 13 14 14 14 14 14 14 13 13 13 13 12 12 13 13 13 12 11 11 10 10 10 9 9 8 8 7 7 7 6 6 6 6 6
22 22 21 20 18 15 17 17 14 14 14 14 14 14 14 14 13 13 13 13 12 12 11 11 12 11 11 10 10 10 9 8 7 8 8 6 6 6 6 6 6 5 5
23 22 21 19 18 16 16 17 15 14 14 14 14 14 14 13 13 13 12 12 12 11 11 11 11 11 10 10 9 9 8 7 6 7 7 7 6 6 5 6 5 5 5
23 22 21 20 18 17 16 17 14 14 14 14 14 13 13 13 13 12 12 12 11 12 12 11 11 10 9 8 7 7 7 6 6 6 6 6 6 5 4 4 4 4 4
22 21 20 19 19 18 17 16 14 14 14 14 13 13 12 12 11 12 11 11 12 11 11 11 10 9 7 6 6 6 6 6 6 5 5 5 4 4 4 4 3 3 3
22 21 21 20 18 18 17 16 15 15 15 14 13 12 12 11 12 12 12 12 11 11 10 10 9 8 7 6 6 6 6 6 5 5 4 4 4 4 4 3 3 3 3
20 20 20 20 19 18 17 16 16 14 14 13 12 11 10 11 11 11 11 11 10 10 10 9 9 8 6 6 5 5 5 5 4 4 4 4 3 4 3 3 1 2 2
21 22 20 19 18 18 17 16 15 14 13 13 11 10 10 10 10 10 10 10 10 10 9 8 8 6 5 5 5 5 3 3 4 3 3 3 3 3 3 2 2 2 1
22 21 20 19 18 18 17 16 15 14 13 12 11 10 10 9 9 10 10 10 10 9 9 8 7 5 4 4 4 3 2 3 3 3 3 3 3 2 2 2 2 1 1
22 21 21 19 18 17 17 16 15 14 12 10 10 10 8 10 10 10 9 9 9 9 8 6 4 3 3 3 3 2 2 2 2 2 3 2 2 2 2 2 1 0 -0
21 20 19 18 17 16 16 15 14 12 11 9 10 8 9 10 9 9 9 7 6 7 5 4 3 3 2 3 2 2 1 2 2 1 2 2 2 2 2 2 1 0 -1
20 20 18 17 16 15 14 13 12 10 9 9 8 7 8 8 7 6 6 5 5 4 3 4 3 2 3 2 2 2 1 2 2 2 1 2 2 2 2 1 0 -0 -1
18 17 16 15 14 13 12 11 10 9 8 9 8 8 7 7 6 5 5 4 4 5 3 1 1 2 1 1 1 1 1 1 2 2 2 2 1 1 0 1 -0 -1 -1
16 15 14 13 12 11 10 9 9 8 8 8 8 7 6 6 6 5 4 4 3 2 1 1 2 1 1 1 1 1 1 1 2 2 2 1 0 1 0 0 -0 -1 -1
14 13 12 12 10 9 9 8 8 7 8 7 7 6 5 5 4 4 3 3 2 1 1 1 1 1 1 1 1 1 1 1 0 1 1 1 1 0 0 -0 -1 -1 -1
12 12 11 10 9 8 7 7 7 7 6 5 5 4 4 4 5 4 3 2 1 1 1 0 1 0 0 0 0 1 0 -0 -0 1 1 0 1 0 -0 -1 -1 -1 -1
11 10 11 9 7 7 7 6 6 6 7 6 6 5 5 5 4 3 2 2 1 0 -0 0 -0 -0 -0 -0 -0 -0 0 -0 0 0 0 0 -0 -1 -1 -2 -2 -1 -1
10 10 9 7 7 7 6 5 5 6 5 5 4 4 4 3 3 3 2 1 0 0 0 -0 -1 -1 -1 -0 -1 -1 -0 -0 -1 -1 -0 -0 -0 -1 -2 -2 -2 -2 -2
9 9 8 7 6 5 4 3 4 4 3 2 2 1 1 1 1 1 1 0 0 -0 -0 -1 -1 -1 -1 -1 -1 -1 -1 -1 -2 -1 -1 -1 -1 -2 -2 -2 -2 -2 -2
8 7 7 6 4 3 2 2 3 3 2 1 1 0 1 1 -0 -1 0 0 0 -0 -1 -2 -2 -1 -1 -1 -1 -1 -2 -2 -2 -2 -2 -2 -2 -2 -2 -3 -3 -2 -2

GFSMW_850_temp_237.txt.gz
Temp
28 28 28 27 26 25 24 24 23 23 21 20 20 18 17 15 14 14 14 15 15 15 14 14 14 14 13 13 13 13 13 13 13 13 12 12 12 12 11 10 10 10 11
28 28 28 27 27 26 25 24 23 23 22 21 21 21 18 14 14 14 14 14 14 14 14 15 14 14 13 13 13 13 13 14 13 12 10 10 11 11 10 10 9 10 9
28 28 28 27 27 26 25 24 23 23 22 21 20 19 16 14 14 14 14 14 14 14 14 14 14 13 13 13 14 13 14 14 13 12 11 10 9 10 10 10 10 9 9
28 27 28 27 26 25 24 23 23 22 21 20 20 20 20 18 18 14 14 14 14 13 14 14 13 13 13 14 14 14 14 13 13 12 11 11 9 9 8 8 8 8 7
27 26 26 26 25 24 22 21 20 20 20 20 19 19 19 19 18 16 13 14 13 13 14 14 14 14 13 13 14 14 14 13 12 12 12 11 10 9 8 8 9 8 8
25 25 25 24 24 24 24 23 21 19 19 19 19 18 17 17 17 16 15 14 14 13 14 13 14 13 13 13 13 13 13 12 12 11 11 10 9 9 8 8 8 7 7
25 24 24 23 23 23 23 23 21 20 19 18 18 18 17 16 16 16 15 15 14 14 13 14 14 13 13 13 13 13 12 12 12 11 10 9 9 9 8 7 7 6 5
24 24 24 23 22 22 21 21 20 19 19 18 17 17 15 15 15 15 15 15 15 14 13 13 12 12 13 13 12 12 12 11 11 10 9 8 8 7 7 7 6 6 5
24 24 23 22 22 21 21 21 21 20 20 20 18 17 15 14 14 14 14 14 14 13 13 12 12 12 12 12 12 11 11 10 9 9 9 7 7 7 6 6 5 4 4
24 24 23 22 22 21 20 20 20 19 18 17 16 16 15 14 14 14 14 14 14 13 12 12 12 12 12 11 11 10 10 9 9 8 7 7 6 6 6 5 4 4 3
24 24 22 22 22 21 20 20 19 19 19 19 17 16 15 14 14 14 14 14 13 12 11 12 12 11 11 10 10 9 8 7 9 7 6 6 6 5 5 5 4 4 3
24 23 23 22 21 21 20 20 19 19 18 17 17 17 15 14 14 13 14 13 12 11 12 11 11 10 10 9 8 8 8 8 7 6 6 5 5 5 4 4 4 4 4
24 23 23 22 22 21 20 20 20 19 19 18 17 17 15 14 13 13 13 11 12 12 12 11 11 10 9 8 8 8 8 7 6 6 5 4 4 4 4 3 3 3 3
24 24 23 23 23 22 21 20 20 19 19 17 17 16 16 15 14 13 12 12 12 11 11 10 10 9 8 7 7 8 6 6 5 5 4 3 3 3 3 2 2 3 2
23 23 23 23 22 22 22 21 20 19 18 18 17 16 15 15 14 13 12 11 11 11 10 9 9 7 7 7 8 5 6 5 4 4 3 3 3 2 2 2 2 2 2
23 23 23 23 23 22 22 21 20 19 18 17 17 16 15 13 13 13 12 11 10 10 9 8 7 6 6 7 5 5 4 4 4 3 3 3 2 2 2 2 2 1 1
22 21 22 22 22 21 21 20 19 18 17 17 16 16 15 13 13 12 11 10 9 9 8 7 6 6 5 5 4 3 4 3 4 3 3 2 2 2 3 2 2 1 1
21 21 22 21 21 20 19 18 17 17 16 16 15 15 14 13 12 11 10 9 8 8 7 6 6 5 4 4 3 3 3 3 3 3 3 2 1 1 1 1 1 1 1
21 21 21 20 19 19 18 17 17 17 16 16 15 14 13 12 11 10 9 8 7 6 6 5 6 5 4 3 2 3 3 2 2 2 2 1 1 0 1 1 1 1 0
18 18 18 18 18 18 17 17 17 16 16 15 14 13 12 11 10 9 8 7 6 5 5 5 5 4 3 3 3 3 2 2 2 1 1 0 -1 -0 -0 -0 0 0 -0
17 16 16 16 16 16 16 16 15 15 14 13 12 11 10 9 8 8 6 6 5 5 4 4 4 3 3 1 1 2 2 1 1 1 1 1 0 -0 1 1 0 -0 -0
14 14 14 13 13 14 14 13 12 12 12 11 10 9 8 7 7 6 5 5 5 5 4 3 3 3 1 -0 -0 1 1 0 -0 0 -0 0 0 -0 0 0 -0 -1 -1
11 11 11 11 11 11 11 11 10 10 9 9 9 8 7 6 6 5 5 5 4 3 3 3 2 0 -0 -1 -1 0 -0 -0 -0 -0 -0 -1 -1 -0 -0 -0 -1 -1 -1
10 9 8 9 9 9 8 8 8 8 8 8 7 7 6 6 5 5 4 2 2 2 2 2 1 -0 -1 -1 -1 -1 -0 -0 -1 -0 -0 -2 -2 -1 -1 -1 -1 -2 -2
7 8 8 7 6 6 7 7 7 6 6 6 5 5 4 4 4 3 2 1 0 1 2 -0 -0 -0 -1 -1 -1 -1 -1 -1 -1 -1 -2 -2 -2 -2 -1 -1 -1 -2 -2
8 8 6 6 5 6 6 6 6 5 5 4 3 3 3 2 2 1 1 -0 -0 1 0 0 -0 -1 -1 -1 -1 -1 -1 -1 -1 -2 -3 -2 -2 -3 -2 -2 -2 -2 -3